Home > Weather > Tilburg > Past weeks

Flag for Netherlands Weather for the Past 2 Weeks in Tilburg, Netherlands

Now
45 °F

Quite cool.


Feels Like: 41 °F
Forecast: 49 / 74 °F
Wind: 7 mph from Southeast

Location: Gilze-Rijen

Current Time: May 5, 2016 at 5:01:45 AM

Latest Report: May 5, 2016 at 4:25 AM


Visibility: N/A

Pressure: 30.27 "Hg

Humidity: 66%

Dew Point: 34 °F

Location of TilburgLocation

Historic Weather in Tilburg — Graph

°F

Tilburg Temperature Yesterday

Maximum temperature yesterday: 61 °F (at 1:55 PM)
Minimum temperature yesterday: 34 °F (at 3:55 AM)
Average temperature yesterday: 49 °F

High & Low Weather Summary for the Past Weeks

 TemperatureHumidityPressure
High64 °F (Apr 21, 2:25 PM)100% (Apr 20, 5:25 AM)30.48 "Hg (Apr 20, 5:25 AM)
Low30 °F (Apr 28, 5:25 AM)26% (May 2, 5:25 PM)29.50 "Hg (Apr 26, 6:25 AM)
Average46 °F72%30.06 "Hg
* Reported Apr 20 3:25 AM — May 5 3:55 AM, Tilburg, Weather by CustomWeather, © 2016

Note: Actual official high and low records may vary slightly from our data, if they occured in-between our weather recording intervals... More about our weather records

Advertising

Tilburg Weather History for the Previous 24 Hours

Scroll right to see more
 ConditionsComfort  
Time TempWeatherWind HumidityBarometerVisibility
3:55 AM
Thu, May 5
45 °FQuite cool.6 mph66%30.30 "HgN/A
3:25 AM45 °FQuite cool.6 mph66%30.30 "HgN/A
2:55 AM45 °FQuite cool.5 mph66%30.30 "HgN/A
2:25 AM46 °FCool.5 mph62%30.30 "HgN/A
1:55 AM48 °FCool.6 mph58%30.30 "HgN/A
1:25 AM48 °FCool.6 mph58%30.30 "HgN/A
12:55 AM48 °FCool.5 mph58%30.30 "HgN/A
12:25 AM48 °FCool.5 mph58%30.30 "HgN/A
11:55 PM
Wed, May 4
50 °FCool.5 mph54%30.33 "HgN/A
11:25 PM50 °FCool.5 mph54%30.33 "HgN/A
10:55 PM50 °FCool.6 mph54%30.33 "HgN/A
10:25 PM50 °FCool.5 mph54%30.33 "HgN/A
9:55 PM52 °FCool.5 mph50%30.33 "HgN/A
9:25 PM54 °FCool.3 mph47%30.33 "HgN/A
8:55 PM52 °FCool.7 mph54%30.30 "HgN/A
8:25 PM55 °FRefreshingly cool.7 mph44%30.30 "HgN/A
7:55 PM59 °FRefreshingly cool.6 mph39%30.33 "HgN/A
7:25 PM59 °FRefreshingly cool.6 mph39%30.33 "HgN/A
6:55 PM59 °FPassing clouds.8 mph42%30.33 "HgN/A
6:25 PM61 °FPassing clouds.7 mph42%30.33 "HgN/A
5:55 PM59 °FScattered clouds.9 mph42%30.33 "HgN/A
5:25 PM61 °FOvercast.7 mph42%30.33 "HgN/A
4:55 PM61 °FOvercast.8 mph39%30.33 "HgN/A
4:25 PM61 °FOvercast.5 mph36%30.36 "HgN/A
3:55 PM59 °FPartly sunny.6 mph39%30.36 "HgN/A
3:25 PM61 °FPartly sunny.2 mph39%30.36 "HgN/A
2:55 PM59 °FScattered clouds.6 mph45%30.36 "HgN/A
2:25 PM59 °FMostly cloudy.7 mph42%30.36 "HgN/A
1:55 PM61 °FPassing clouds.5 mph45%30.39 "HgN/A
1:25 PM59 °FPassing clouds.5 mph42%30.39 "HgN/A
12:55 PM59 °FRefreshingly cool.3 mph45%30.39 "HgN/A
12:25 PM57 °FPassing clouds.3 mph44%30.39 "HgN/A
11:55 AM57 °FRefreshingly cool.6 mph44%30.39 "HgN/A
11:25 AM55 °FPassing clouds.6 mph47%30.39 "HgN/A
10:55 AM55 °FRefreshingly cool.7 mph51%30.39 "HgN/A
10:25 AM54 °FCool.8 mph54%30.39 "HgN/A
9:55 AM52 °FCool.8 mph58%30.39 "HgN/A
9:25 AM50 °FPassing clouds.7 mph67%30.39 "HgN/A
8:55 AM48 °FPassing clouds.7 mph66%30.39 "HgN/A
8:25 AM46 °FCool.5 mph71%30.39 "HgN/A
7:55 AM43 °FQuite cool.3 mph81%30.39 "HgN/A
7:25 AM39 °FPassing clouds.2 mph87%30.39 "HgN/A
7:00 AM36 °FChilly.3 mph93%30.39 "HgN/A
6:55 AM34 °FChilly.3 mph93%30.39 "HgN/A
6:25 AM34 °FChilly.No wind93%30.39 "HgN/A
5:55 AM34 °FChilly.1 mph100%30.39 "HgN/A
5:25 AM34 °FChilly.1 mph93%30.39 "HgN/A
Weather by CustomWeather, © 2016

See weather overviewHow to use our weather pages